Dewpoint
37 36 35 33 35 38 38 38 40 40 39 39 36 36 35 34 33 33 36 34 35 35 33 34 32 30 30 31 31 30 29 27
38 38 37 37 38 38 36 38 40 37 34 33 31 32 32 31 30 34 35 35 35 34 31 31 31 30 31 31 30 29 27 27
38 37 38 40 39 38 37 36 36 34 30 32 34 33 31 30 31 33 34 34 35 30 33 31 31 30 31 31 29 27 27 27
38 38 39 40 38 39 35 35 34 35 35 30 31 32 30 27 28 29 32 33 34 35 34 33 32 31 29 30 30 27 26 26
38 38 39 39 38 38 36 35 33 33 34 32 33 27 25 28 29 29 30 33 33 33 35 34 33 31 29 30 29 27 28 27
38 38 38 38 37 38 38 35 32 34 33 33 30 30 29 29 30 32 32 33 33 33 33 34 33 30 29 31 28 27 28 28
39 39 39 36 36 37 38 34 32 34 33 33 32 32 31 29 29 28 28 29 31 33 32 32 32 30 29 29 28 28 28 29
39 38 36 35 36 37 36 33 32 33 33 32 31 30 31 29 27 27 27 27 29 31 31 30 29 30 31 29 29 29 31 32
39 38 37 35 36 35 35 31 29 30 31 31 31 30 27 26 28 27 27 28 29 31 29 29 29 30 30 29 29 30 34 33
38 38 37 36 35 36 35 30 28 29 30 30 30 29 29 28 29 30 29 29 24 29 30 29 29 30 28 28 29 31 31 31
38 37 38 35 35 34 35 31 29 30 29 29 26 29 27 28 28 27 28 28 28 28 28 28 28 27 27 28 29 29 29 30
38 37 36 35 33 32 31 31 30 29 29 29 29 28 27 27 26 26 27 28 27 26 26 27 27 26 27 26 27 26 26 29
37 36 35 34 32 29 30 32 30 28 27 28 29 27 26 25 25 25 27 26 27 26 26 27 26 26 28 26 26 25 25 27
36 35 34 31 30 30 28 30 29 23 22 26 27 27 25 24 24 25 24 24 25 26 25 26 26 27 26 25 26 25 24 27
35 34 34 31 29 29 28 28 26 21 20 22 26 26 24 24 24 24 25 24 24 24 26 26 26 26 24 26 25 24 23 27
34 34 32 30 30 29 28 26 20 21 20 21 25 25 25 25 25 24 25 25 24 24 26 26 26 25 24 26 25 24 25 27
33 32 29 28 27 27 26 22 19 20 20 20 20 21 20 24 24 24 23 24 24 25 27 26 27 23 26 26 25 24 24 25
33 31 30 28 28 27 26 18 18 19 19 16 18 20 19 22 21 20 21 23 24 24 26 25 25 27 26 26 26 22 21 25
32 31 30 29 28 26 21 15 17 19 18 16 17 19 19 20 20 20 22 22 23 24 25 24 23 25 26 26 26 22 20 23
Lifted_Index
11 12 13 14 15 15 16 16 17 17 18 18 18 18 18 19 19 19 19 19 19 18 18 18 18 17 15 14 14 14 14 14
10 12 13 14 15 15 16 16 17 18 18 18 18 18 18 18 18 19 19 18 18 18 18 18 17 16 15 14 13 14 14 14
10 11 12 13 14 15 16 16 17 18 18 18 18 18 18 18 18 18 18 18 18 18 17 17 16 15 14 13 13 13 14 14
9 10 11 12 13 15 16 16 17 18 18 18 18 18 18 18 18 18 17 17 17 17 16 15 14 14 13 13 13 13 13 12
8 9 10 12 13 14 16 16 17 18 18 18 18 18 18 18 17 17 17 17 16 16 15 14 13 13 13 12 13 13 13 12
7 8 10 11 13 14 15 16 17 18 18 18 18 18 18 18 17 17 17 16 15 15 14 13 13 13 12 12 12 13 12 12
6 8 10 11 13 14 15 16 17 18 18 19 18 18 18 18 17 17 17 16 15 14 13 13 13 12 12 12 12 12 11 11
6 7 9 11 13 14 15 16 17 18 18 18 18 18 18 18 18 17 17 16 15 14 13 13 13 12 12 12 12 11 10 10
6 7 9 11 13 14 15 16 17 18 18 18 18 18 18 18 18 18 17 16 15 14 13 13 12 12 12 12 11 10 9 9
7 8 10 11 13 14 15 16 17 17 18 18 18 18 19 19 18 18 17 16 15 14 13 13 12 12 12 12 11 10 10 9
7 8 10 11 13 14 15 16 17 17 17 18 18 19 19 19 18 18 17 16 15 14 13 13 12 12 12 12 11 11 10 10
8 9 10 12 13 14 15 16 16 17 18 18 19 19 19 19 18 17 17 15 14 14 13 13 13 12 12 12 12 11 11 10
8 9 10 12 13 14 15 15 16 17 18 19 19 19 19 19 18 17 16 15 14 14 13 13 13 12 12 12 12 12 11 10
8 9 11 12 13 14 15 15 16 18 19 19 19 20 19 19 18 17 16 15 14 14 13 13 12 12 12 12 12 12 11 10
8 9 11 12 13 14 15 15 16 18 19 20 20 20 19 18 17 16 15 15 14 13 13 12 12 12 12 12 12 11 11 10
9 10 11 12 13 14 14 15 17 19 20 20 20 20 19 18 17 16 15 15 14 13 12 12 12 12 12 12 12 11 11 10
9 10 11 12 13 13 14 16 18 19 20 20 20 19 18 17 16 16 15 15 14 12 12 12 12 12 12 12 12 11 11 11
9 10 11 12 13 14 15 17 18 19 20 20 20 19 18 17 16 16 15 14 13 12 11 11 12 12 12 12 11 11 11 11
9 10 11 13 13 14 16 18 19 19 20 20 19 19 18 17 16 16 15 14 13 12 11 11 12 12 12 12 11 11 11 12